www.pogodaiklimat.ru

Погода и климат >> Архив погоды >> Украина >> Сербка


ПОГОДА в Сербке

  • Прогноз погоды в Сербке
  • Монитор погоды в Сербке

АРХИВ ПОГОДЫ в Сербке

Время (UTC), дата Ветер
(напр.,м/с)
 
Видим.   Явления Облачность Т
(С)
Тd
(С)
f
(%)
Тe
(С)
Тes
(С)
Комфортность P
(гПа)
Po
(гПа)
Тmin
(С)
Tmax
(С)
R
(мм)
R24
(мм)
S
(см)
00 10.09 СЗ 1 10 км ясно +15.2 +4.6 49 +16 +16 1019.7 1011.0
03 10.09 З 2 10 км 3/0
[Ci sp]
+13.0 +3.6 53 +13 +13 1020.5 1011.7
06 10.09 СВ 3 20 км 3/0
[Ci sp]
+19.5 +6.6 43 +20 +23 1021.1 1012.5 +12.7
12 10.09 С 6 20 км 5/0
[Cs]
+27.1 +3.6 22 +26 +29 жарко 1020.0 1011.6
15 10.09 СВ 6 20 км 8/0
[Cs]
+26.9 +3.4 22 +26 +26 жарко 1019.9 1011.5
18 10.09 СВ 2 10 км 3/0
[Ci sp]
+20.9 +3.2 31 +22 +22 комфорт 1021.6 1013.0 +28.0
21 10.09 З 1 10 км 3/0
[Ci sp]
+16.9 +4.0 42 +18 +18 1022.7 1014.0
00 11.09 З 2 10 км ясно +15.1 +2.6 43 +15 +15 1023.3 1014.5
03 11.09 СЗ 1 10 км ясно +13.4 +2.3 47 +14 +14 1023.9 1015.1
06 11.09 СВ 3 20 км 1/0
[Ci sp]
+20.1 +5.4 38 +21 +24 комфорт 1024.8 1016.2 +13.1
09 11.09 СВ 6 20 км 3/0
[Ci sp]
+26.8 +5.1 25 +26 +30 жарко 1024.5 1016.1
12 11.09 С 5 20 км 3/0
[Ci]
+28.4 +4.6 22 +27 +31 жарко 1023.8 1015.4
15 11.09 СВ 5 20 км 4/0
[Ci]
+27.7 +3.4 21 +26 +27 жарко 1023.7 1015.3
18 11.09 СВ 2 10 км 3/0
[Ci sp]
+21.6 +2.8 29 +22 +22 комфорт 1024.9 1016.3 +28.8
21 11.09 С 1 10 км ясно +18.7 +3.3 36 +20 +20 1025.7 1017.0
00 12.09 З 2 10 км ясно +12.4 +1.7 48 +12 +12 1025.7 1016.8
03 12.09 З 2 10 км 3/0
[Ci sp]
+13.8 +2.1 45 +14 +14 1025.7 1016.9
06 12.09 С 4 20 км 3/0
[Ci sp]
+20.3 +3.1 32 +21 +23 комфорт 1026.4 1017.7 +12.4
09 12.09 СВ 8 20 км 4/0
[Ci sp]
+27.7 +3.4 21 +26 +28 жарко 1025.8 1017.4
12 12.09 СВ 5 20 км 3/0
[Ci sp]
+28.3 +2.5 19 +26 +31 жарко 1024.8 1016.4
15 12.09 СВ 4 20 км 3/0
[Ci sp]
+28.1 +3.7 21 +27 +27 жарко 1023.8 1015.4
18 12.09 В 1 10 км 3/0
[Ci sp]
+22.1 +3.3 29 +22 +22 комфорт 1025.1 1016.5 +29.1
21 12.09 штиль 0 10 км ясно +15.6 +2.8 42 +16 +16 1025.2 1016.4
00 13.09 СЗ 1 10 км ясно +12.5 +0.6 44 +13 +13 1025.0 1016.1
03 13.09 З 1 10 км 3/0
[Ci sp]
+12.9 +1.3 45 +13 +13 1025.2 1016.3
06 13.09 штиль 0 20 км 4/0
[Ci sp]
+18.1 +3.9 39 +18 +22 1025.7 1017.0 +10.5
09 13.09 С 1 20 км 6/0
[Ci sp]
+28.2 +5.1 23 +27 +37 жарко 1024.8 1016.4
12 13.09 ЮЗ 2 20 км 3/0
[Ci fib]
+29.4 +4.8 21 +28 +36 жарко 1023.0 1014.6
15 13.09 З 1 20 км ясно +28.9 +3.7 20 +27 +28 жарко 1021.8 1013.4
18 13.09 Ю 2 10 км ясно +22.3 +4.8 32 +23 +23 комфорт 1022.5 1013.9 +29.7
00 14.09 З 2 10 км 4/0
[Ci sp]
+16.1 +4.1 45 +16 +16 1022.1 1013.4
06 14.09 З 3 20 км 8/3 600 м
[Sc Ac trans Ci sp]
+20.0 +8.3 47 +21 +22 комфорт 1022.7 1014.1 +15.1
12 14.09 З 6 20 км 10/5 600 м
[Cu med, cong Ac As]
+24.4 +9.9 40 +25 +26 комфорт 1021.8 1013.3
18 14.09 З 4 10 км 4/0
[As trans]
+17.7 +1.6 34 +17 +17 1023.9 1015.2 +26.3
00 15.09 З 3 10 км ясно +10.2 +1.3 54 +8 +8 1026.3 1017.3
06 15.09 СЗ 1 20 км 3/0
[Ci]
+14.0 +2.9 47 +15 +18 1027.3 1018.4 +8.9
12 15.09 З 2 20 км 4/0
[Ci]
+22.8 +1.2 24 +22 +30 комфорт 1024.0 1015.4
18 15.09 Ю 2 10 км 1/0
[Ci sp]
+16.7 -0.5 31 +17 +17 1021.7 1013.0 +23.8
00 16.09 Ю 1 10 км ясно +13.8 +6.7 62 +14 +14 1019.6 1010.8
06 16.09 Ю 4 20 км 3/0
[Ci sp]
+17.4 +8.2 55 +17 +19 1016.9 1008.2 +11.9
12 16.09 ЮЗ 5 20 км 1/0
[Ci sp]
+27.0 +3.5 22 +26 +30 жарко 1013.1 1004.7
18 16.09 ЮЗ 4 10 км ясно +21.1 +4.2 33 +21 +21 комфорт 1012.0 1003.5 +27.7

 

Местоположение метеостанции Сербка (Одесская область, Украина): широта 47.02 долгота 30.75 высота над уровнем моря 73 м.

В архиве по умолчанию представлена погода в Сербке за последнюю неделю. Архивные данные за месяц целиком и за предыдущие месяцы, начиная с января 2011 года, Вы можете получить, выбрав интересующий диапазон дат из раскрывающегося списка и нажав кнопку "Ввод!".


*Определитесь, кто Вы:
робот инопланетянин человек

Внимание! Время в таблицах - всемирное. Для получения местного времени необходимо прибавить поправку, которая равна 2 ч.

Смотрите также архив погоды в соседних городах и на ближайших метеорологических станциях:

Погода в Раздельной (Одесская область, Украина) (54 км)
Погода в Заставе (Одесская область, Украина) (62 км)
Погода в Одессе (Одесская область, Украина) (66 км)
Погода в Ильичевске (Одесская область, Украина) (69 км)
Погода в Затишье (Одесская область, Украина) (74 км)
Погода в Очакове (Николаевская область, Украина) (75 км)
Погода в Вознесенске (Николаевская область, Украина) (75 км)
Погода в Тирасполе (Молдова) (88 км)
Погода в Николаеве (Николаевская область, Украина) (91 км)
Погода в Белгород-Днестровском (Одесская область, Украина) (98 км)

Пояснения к столбцам:

Ветер - указаны скорость ветра в м/с - средняя за 10 мин, порывы в срок и между сроками (в фигурных скобках) и направление, откуда дует ветер: С - северный, СВ - северо-восточный, В - восточный, ЮВ - юго-восточный, Ю - южный, ЮЗ - юго-западный, З - западный, СЗ - северо-западный.
Видимость - горизонтальная дальность видимости в метрах или километрах. При видимости от 1 до 10 км при отсутствии осадков обычно наблюдается дымка, при ухудшении видимости до 1 км и менее - туман. В сухую погоду видимость может ухудшаться дымом, пылью или мглою.
Явления - указаны атмосферные явления, наблюдавшиеся в срок или в последний час перед сроком; фигурными скобками обозначены явления, наблюдавшиеся между сроками (за 1-3 часа до срока); квадратными скобками обозначены град или гололедные отложения с указанием их диаметра в мм.
Облачность - указаны через наклонную черту общая и нижняя облачность в баллах и высота нижней границы облаков в метрах; квадратными скобками обозначены формы облаков: Ci - перистые, Cs - перисто-слоистые, Cc - перисто-кучевые, Ac - высококучевые, As - высокослоистые, Sc - слоисто-кучевые, Ns - слоисто-дождевые, Cu - кучевые, Cb - кучево-дождевые. Подробнее классификацию облаков см. в Атласе облаков (PDF).
T - Температура воздуха - температура, измеренная на высоте 2 м над землей.
Td - Температура точки росы - температура, при понижении до которой содержащийся в воздухе водяной пар достигнет насыщения.
f - Относительная влажность воздуха - влажноcть воздуха, измеренная на высоте 2 м над землей.
Te - Эффективная температура - температура, которую ощущает одетый по сезону человек в тени. Характеристика душности погоды. При расчете учитывается влияние влажности воздуха и скорости ветра на теплоощущения человека.
Tes - Эффективная температура на солнце - температура, которую ощущает человек, с поправкой на солнечный нагрев. Характеристика знойности погоды. Зависит от высоты солнца над горизонтом, облачности и скорости ветра. Ночью, в пасмурную погоду, а также при ветре 12 м/с и более поправка равна нулю.
P - Атмосферное давление - приведенное к уровню моря атмосферное давление.
Po - Атмосферное давление - измеренное на уровне метеостанции атмосферное давление.
Tmin - Минимальная температура - минимум температуры воздуха на высоте 2 м над землей.
Tmax - Максимальная температура - максимум температуры воздуха на высоте 2 м над землей.
R - Количество осадков - Количество выпавших осадков за период времени, мм. При наведении курсора мыши на число - период времени, за который выпало указанное количество осадков.
R24 - Количество осадков - Количество выпавших осадков за 24 часа, мм.
S - Снежный покров - Высота снежного покрова, см. При наведении курсора мыши на число - состояние снежного покрова и степень покрытия местности в баллах.